Weather History for Window Rock, AZ

Change the Weather History Date:

Friday, April 12, 2013

  Actual Average Record
Temperature  
Mean Temperature 46 °F -  
Max Temperature 64 °F 60 °F 79 °F (1988)
Min Temperature 30 °F 30 °F 11 °F (1953)
Degree Days  
Heating Degree Days 18    
Moisture  
Dew Point 20 °F    
Average Humidity 47    
Maximum Humidity 92    
Minimum Humidity 9    
Precipitation  
Precipitation 0.00 in - - ()
Sea Level Pressure  
Sea Level Pressure 29.81 in    
Wind  
Wind Speed 2 mph (WNW)    
Max Wind Speed 15 mph    
Max Gust Speed 20 mph    
Visibility 10 miles    
Events      
Averages and records for this station are not official NWS values.
T = Trace of Precipitation, MM = Missing Value Source: NWS Daily Summary

Daily Weather History Graph

Daily Weather History Graph

Search for Another Location

Airport:

Trip Planner

Search our weather history database for the weather conditions in past years. The results will help you decide how hot, cold, wet, or windy it might be!

Date:

Astronomy

Apr. 12, 2013 Rise Set
Actual Time 6:47 AM MDT 7:47 PM MDT
Civil Twilight 6:20 AM MDT 8:13 PM MDT
Nautical Twilight 5:49 AM MDT 8:44 PM MDT
Astronomical Twilight 5:17 AM MDT 9:16 PM MDT
Moon 8:03 AM MDT (4/12) 10:15 PM MDT (4/12)
Length of Visible Light 13h 52m
Length of Day
13h 00m
Waxing Crescent, 5% of the Moon is Illuminated
Apr 12
Waxing Crescent
Apr 18
First Quarter
Apr 25
Full
May 2
Last Quarter
May 9
New

Hourly Weather History & Observations

Time (MDT) Temp. Windchill Dew Point Humidity Pressure Visibility Wind Dir Wind Speed Gust Speed Precip Events Conditions
12:53 AM 33.1 °F - 30.0 °F 89% 29.82 in 10.0 mi Calm Calm - N/A   Mostly Cloudy
1:53 AM 33.1 °F - 30.0 °F 89% 29.80 in 10.0 mi Calm Calm - N/A   Overcast
2:53 AM 32.0 °F - 28.9 °F 88% 29.81 in 10.0 mi Calm Calm - N/A   Overcast
3:53 AM 30.9 °F - 28.9 °F 92% 29.83 in 10.0 mi Calm Calm - N/A   Overcast
4:53 AM 32.0 °F - 30.0 °F 92% 29.82 in 10.0 mi Calm Calm - N/A   Overcast
5:53 AM 30.9 °F - 28.9 °F 92% 29.83 in 10.0 mi Calm Calm - N/A   Clear
7:53 AM 30.0 °F - 28.0 °F 92% 29.90 in 10.0 mi Calm Calm - N/A   Clear
8:53 AM 39.9 °F - 32.0 °F 73% 29.86 in 10.0 mi Calm Calm - N/A   Clear
9:53 AM 50.0 °F - 32.0 °F 50% 29.83 in 10.0 mi Calm Calm - N/A   Clear
10:53 AM 54.0 °F - 26.1 °F 34% 29.82 in 10.0 mi Variable 3.5 mph - N/A   Partly Cloudy
11:53 AM 57.0 °F - 18.0 °F 22% 29.81 in 10.0 mi West 5.8 mph - N/A   Scattered Clouds
12:53 PM 61.0 °F - 19.9 °F 21% 29.80 in 10.0 mi West 15.0 mph 19.6 mph N/A   Partly Cloudy
1:53 PM 60.1 °F - 10.9 °F 14% 29.78 in 10.0 mi NNW 9.2 mph 19.6 mph N/A   Clear
2:53 PM 63.0 °F - 12.0 °F 14% 29.76 in 10.0 mi WSW 11.5 mph 18.4 mph N/A   Scattered Clouds
3:53 PM 62.1 °F - 12.9 °F 15% 29.74 in 10.0 mi NW 5.8 mph - N/A   Mostly Cloudy
4:53 PM 62.1 °F - 1.9 °F 9% 29.73 in 10.0 mi West 12.7 mph 17.3 mph N/A   Clear
5:53 PM 62.1 °F - 3.0 °F 9% 29.73 in 10.0 mi NNW 5.8 mph - N/A   Clear
6:53 PM 60.1 °F - 3.0 °F 10% 29.75 in 10.0 mi WNW 5.8 mph - N/A   Clear
7:53 PM 52.0 °F - 12.0 °F 20% 29.80 in 10.0 mi Calm Calm - N/A   Clear
8:53 PM 44.1 °F - 14.0 °F 30% 29.82 in 10.0 mi Calm Calm - N/A   Clear
9:53 PM 42.1 °F - 16.0 °F 35% 29.82 in 10.0 mi Calm Calm - N/A   Clear
10:53 PM 37.9 °F 35.5 °F 17.1 °F 43% 29.85 in 10.0 mi WNW 3.5 mph - N/A   Clear
11:53 PM 32.0 °F 28.7 °F 18.0 °F 56% 29.86 in 10.0 mi South 3.5 mph - N/A   Clear